When you browse on this site, cookies collect data to enhance your experience and personalize the content and advertising you see.
Visit our Privacy Policy to learn more. By continuing to use the site, you agree to this use of cookies and data.
  • In Switzerland
  • List of Countries
  • For 7 days
  • Water Temperature
  • Satellite Maps
  • Weather Map
  • Weather Widgets
  • user-avatar
    Login

    Hourly Weather Zurich

    Today, 23 March, Saturday

    Time Temperature Precipitation Wind Pressure Humidity
    00:00 +7°C° 0 mm 1 mps 727 mmHg 76%
    01:00 +7°C° 0 mm 1 mps 727 mmHg 72%
    02:00 +7°C° 0 mm 1 mps 727 mmHg 74%
    03:00 +6°C° 0 mm 1 mps 727 mmHg 76%
    04:00 +6°C° 0 mm 1 mps 727 mmHg 77%
    05:00 +6°C° 0 mm 1 mps 727 mmHg 77%
    06:00 +6°C° 0 mm 1 mps 727 mmHg 77%
    07:00 +5°C° 0 mm 1 mps 727 mmHg 76%
    08:00 +8°C° 0 mm 0 mps 727 mmHg 68%
    09:00 +11°C° 0 mm 0 mps 727 mmHg 61%
    10:00 +14°C° 0 mm 0 mps 727 mmHg 53%
    11:00 +15°C° 0 mm 0 mps 727 mmHg 49%
    12:00 +17°C° 0 mm 0 mps 727 mmHg 45%
    13:00 +20°C° 0 mm 1 mps 727 mmHg 41%
    14:00 +20°C° 0 mm 1 mps 726 mmHg 41%
    15:00 +20°C° 0 mm 1 mps 726 mmHg 41%
    16:00 +19°C° 0 mm 1 mps 726 mmHg 41%
    17:00 +16°C° 0 mm 1 mps 726 mmHg 49%
    18:00 +14°C° 0 mm 1 mps 726 mmHg 57%
    19:00 +10°C° 0 mm 0 mps 726 mmHg 64%
    20:00 +10°C° 0 mm 1 mps 726 mmHg 69%
    21:00 +9°C° 0 mm 1 mps 726 mmHg 74%
    22:00 +9°C° 0 mm 1 mps 726 mmHg 79%
    23:00 +8°C° 0 mm 1 mps 726 mmHg 81%

    Tomorrow, 24 March, Sunday

    Time Temperature Precipitation Wind Pressure Humidity
    00:00 +7°C° 0 mm 1 mps 726 mmHg 84%
    01:00 +7°C° 0 mm 1 mps 726 mmHg 86%
    02:00 +7°C° 0 mm 1 mps 726 mmHg 86%
    03:00 +5°C° 0 mm 0 mps 725 mmHg 87%
    04:00 +5°C° 0 mm 0 mps 725 mmHg 87%
    05:00 +5°C° 0 mm 0 mps 725 mmHg 86%
    06:00 +5°C° 0 mm 0 mps 725 mmHg 84%
    07:00 +5°C° 0 mm 0 mps 725 mmHg 83%
    08:00 +8°C° 0 mm 0 mps 725 mmHg 75%
    09:00 +10°C° 0 mm 0 mps 725 mmHg 67%
    10:00 +13°C° 0 mm 0 mps 725 mmHg 58%
    11:00 +15°C° 0 mm 1 mps 725 mmHg 55%
    12:00 +18°C° 0 mm 1 mps 724 mmHg 52%
    13:00 +18°C° 0 mm 2 mps 724 mmHg 48%
    14:00 +18°C° 0 mm 2 mps 724 mmHg 49%
    15:00 +18°C° 0 mm 2 mps 724 mmHg 49%
    16:00 +18°C° 0 mm 2 mps 723 mmHg 49%
    17:00 +16°C° 0 mm 2 mps 723 mmHg 58%
    18:00 +14°C° 0 mm 1 mps 723 mmHg 67%
    19:00 +11°C° 0 mm 1 mps 723 mmHg 75%
    20:00 +11°C° 0 mm 1 mps 724 mmHg 79%
    21:00 +10°C° 0 mm 1 mps 724 mmHg 82%
    22:00 +8°C° 0 mm 0 mps 724 mmHg 86%
    23:00 +8°C° 0 mm 0 mps 724 mmHg 88%

    Day after tomorrow, 25 March, Monday

    Time Temperature Precipitation Wind Pressure Humidity
    00:00 +7°C° 0 mm 0 mps 724 mmHg 90%
    01:00 +7°C° 0 mm 0 mps 724 mmHg 92%
    02:00 +7°C° 0 mm 0 mps 724 mmHg 92%
    03:00 +7°C° 0 mm 0 mps 724 mmHg 91%
    04:00 +8°C° 0 mm 0 mps 724 mmHg 91%
    05:00 +7°C° 0.1 mm 0 mps 724 mmHg 91%
    06:00 +7°C° 0.1 mm 0 mps 724 mmHg 92%
    07:00 +8°C° 0.1 mm 1 mps 724 mmHg 92%
    08:00 +8°C° 0.2 mm 1 mps 724 mmHg 88%
    09:00 +9°C° 0.2 mm 1 mps 724 mmHg 83%
    10:00 +9°C° 0.2 mm 1 mps 724 mmHg 79%
    11:00 +10°C° 0 mm 1 mps 724 mmHg 71%
    12:00 +10°C° 0 mm 2 mps 724 mmHg 63%
    13:00 +12°C° 0 mm 2 mps 723 mmHg 54%
    14:00 +11°C° 0 mm 3 mps 723 mmHg 52%
    15:00 +10°C° 0 mm 3 mps 724 mmHg 50%
    16:00 +10°C° 0 mm 4 mps 724 mmHg 48%
    17:00 +9°C° 0.1 mm 3 mps 724 mmHg 55%
    18:00 +7°C° 0.1 mm 3 mps 725 mmHg 62%
    19:00 +5°C° 0.1 mm 2 mps 725 mmHg 69%
    20:00 +4°C° 0 mm 2 mps 726 mmHg 71%
    21:00 +4°C° 0 mm 1 mps 726 mmHg 74%
    22:00 +3°C° 0 mm 1 mps 727 mmHg 77%
    23:00 +2°C° 0 mm 1 mps 728 mmHg 79%

    26 March, Tuesday

    Time Temperature Precipitation Wind Pressure Humidity
    00:00 +2°C° 0 mm 1 mps 728 mmHg 80%
    01:00 +1°C° 0 mm 1 mps 728 mmHg 82%
    02:00 +1°C° 0 mm 1 mps 728 mmHg 83%
    03:00 +1°C° 0 mm 1 mps 728 mmHg 83%
    04:00 +1°C° 0 mm 1 mps 729 mmHg 84%
    05:00 +1°C° 0 mm 1 mps 729 mmHg 84%
    06:00 +1°C° 0 mm 1 mps 729 mmHg 83%
    07:00 +1°C° 0 mm 1 mps 729 mmHg 83%
    08:00 +2°C° 0 mm 2 mps 729 mmHg 74%
    09:00 +3°C° 0 mm 3 mps 729 mmHg 65%
    10:00 +5°C° 0 mm 3 mps 730 mmHg 55%
    11:00 +6°C° 0 mm 4 mps 729 mmHg 51%
    12:00 +7°C° 0 mm 4 mps 729 mmHg 47%
    13:00 +8°C° 0 mm 4 mps 728 mmHg 43%
    14:00 +8°C° 0 mm 4 mps 728 mmHg 43%
    15:00 +8°C° 0 mm 4 mps 728 mmHg 43%
    16:00 +8°C° 0 mm 4 mps 728 mmHg 43%
    17:00 +7°C° 0 mm 3 mps 728 mmHg 50%
    18:00 +6°C° 0 mm 2 mps 728 mmHg 58%
    19:00 +4°C° 0 mm 2 mps 729 mmHg 65%
    20:00 +3°C° 0 mm 2 mps 729 mmHg 70%
    21:00 +3°C° 0 mm 1 mps 729 mmHg 75%
    22:00 +2°C° 0 mm 1 mps 729 mmHg 79%
    23:00 +2°C° 0 mm 1 mps 729 mmHg 81%

    27 March, Wednesday

    Time Temperature Precipitation Wind Pressure Humidity
    00:00 +1°C° 0 mm 1 mps 729 mmHg 84%
    01:00 +1°C° 0 mm 1 mps 729 mmHg 86%
    02:00 0°C° 0 mm 1 mps 729 mmHg 87%
    03:00 0°C° 0 mm 1 mps 729 mmHg 87%
    04:00 0°C° 0 mm 1 mps 728 mmHg 87%
    05:00 0°C° 0 mm 1 mps 729 mmHg 84%
    06:00 +1°C° 0 mm 1 mps 729 mmHg 81%
    07:00 0°C° 0 mm 0 mps 729 mmHg 79%
    08:00 +3°C° 0 mm 1 mps 729 mmHg 68%
    09:00 +6°C° 0 mm 1 mps 729 mmHg 57%
    10:00 +9°C° 0 mm 1 mps 729 mmHg 46%
    11:00 +9°C° 0 mm 2 mps 729 mmHg 43%
    12:00 +10°C° 0 mm 2 mps 728 mmHg 40%
    13:00 +13°C° 0 mm 2 mps 728 mmHg 36%
    14:00 +13°C° 0 mm 2 mps 728 mmHg 37%
    15:00 +13°C° 0 mm 2 mps 728 mmHg 39%
    16:00 +13°C° 0 mm 2 mps 728 mmHg 40%
    17:00 +10°C° 0 mm 2 mps 728 mmHg 49%
    18:00 +8°C° 0 mm 2 mps 728 mmHg 57%
    19:00 +6°C° 0 mm 2 mps 728 mmHg 66%
    20:00 +5°C° 0 mm 2 mps 729 mmHg 72%
    21:00 +5°C° 0 mm 1 mps 729 mmHg 78%
    22:00 +4°C° 0 mm 1 mps 729 mmHg 84%
    23:00 +3°C° 0 mm 1 mps 729 mmHg 86%

    28 March, Thursday

    Time Temperature Precipitation Wind Pressure Humidity
    00:00 +3°C° 0 mm 1 mps 729 mmHg 89%
    01:00 +2°C° 0 mm 1 mps 728 mmHg 91%
    02:00 +2°C° 0 mm 1 mps 728 mmHg 91%
    03:00 +2°C° 0 mm 1 mps 728 mmHg 92%
    04:00 +1°C° 0 mm 1 mps 728 mmHg 92%
    05:00 +2°C° 0 mm 1 mps 728 mmHg 91%
    06:00 +2°C° 0 mm 1 mps 728 mmHg 91%
    07:00 +2°C° 0 mm 1 mps 728 mmHg 90%
    08:00 +4°C° 0 mm 1 mps 728 mmHg 80%
    09:00 +6°C° 0 mm 2 mps 728 mmHg 71%
    10:00 +8°C° 0 mm 3 mps 728 mmHg 62%
    11:00 +10°C° 0 mm 3 mps 728 mmHg 59%
    12:00 +11°C° 0 mm 3 mps 728 mmHg 56%
    13:00 +12°C° 0 mm 4 mps 728 mmHg 54%
    14:00 +12°C° 0 mm 4 mps 728 mmHg 54%
    15:00 +12°C° 0 mm 4 mps 727 mmHg 55%
    16:00 +12°C° 0 mm 4 mps 727 mmHg 56%
    17:00 +11°C° 0 mm 3 mps 727 mmHg 65%
    18:00 +9°C° 0 mm 2 mps 727 mmHg 74%
    19:00 +7°C° 0 mm 2 mps 728 mmHg 83%
    20:00 +6°C° 0 mm 2 mps 728 mmHg 86%
    21:00 +6°C° 0 mm 1 mps 728 mmHg 90%
    22:00 +5°C° 0 mm 1 mps 729 mmHg 93%
    23:00 +4°C° 0 mm 1 mps 729 mmHg 93%
    Show more